When you browse on this site, cookies collect data to enhance your experience and personalize the content and advertising you see.
Visit our Privacy Policy to learn more. By continuing to use the site, you agree to this use of cookies and data.
  • In Latvia
  • List of Countries
  • For 7 days
  • Water Temperature
  • Weather Map
  • Weather Widgets
  • user-avatar
    Login

    Hourly Weather Megri

    Today, 20 August, Tuesday

    Time Temperature Precipitation Wind Pressure Humidity
    00:00 +19°C° 0 mm 4 mps 626 mmHg 40%
    01:00 +19°C° 0 mm 4 mps 626 mmHg 40%
    02:00 +18°C° 0 mm 3 mps 625 mmHg 40%
    03:00 +18°C° 0 mm 3 mps 625 mmHg 41%
    04:00 +18°C° 0 mm 3 mps 626 mmHg 37%
    05:00 +18°C° 0 mm 3 mps 626 mmHg 33%
    06:00 +18°C° 0 mm 3 mps 626 mmHg 29%
    07:00 +20°C° 0 mm 3 mps 627 mmHg 24%
    08:00 +23°C° 0 mm 4 mps 628 mmHg 18%
    09:00 +26°C° 0 mm 4 mps 629 mmHg 13%
    10:00 +27°C° 0 mm 4 mps 629 mmHg 12%
    11:00 +29°C° 0 mm 4 mps 629 mmHg 10%
    12:00 +30°C° 0 mm 4 mps 629 mmHg 9%
    13:00 +30°C° 0 mm 5 mps 629 mmHg 9%
    14:00 +32°C° 0 mm 5 mps 629 mmHg 10%
    15:00 +32°C° 0 mm 5 mps 628 mmHg 10%
    16:00 +29°C° 0 mm 5 mps 628 mmHg 12%
    17:00 +28°C° 0 mm 4 mps 627 mmHg 14%
    18:00 +27°C° 0 mm 4 mps 627 mmHg 16%
    19:00 +25°C° 0 mm 4 mps 627 mmHg 19%
    20:00 +22°C° 0 mm 4 mps 626 mmHg 23%
    21:00 +20°C° 0 mm 3 mps 626 mmHg 26%
    22:00 +19°C° 0 mm 3 mps 626 mmHg 28%
    23:00 +19°C° 0 mm 3 mps 626 mmHg 29%

    Tomorrow, 21 August, Wednesday

    Time Temperature Precipitation Wind Pressure Humidity
    00:00 +18°C° 0 mm 3 mps 625 mmHg 31%
    01:00 +18°C° 0 mm 3 mps 625 mmHg 32%
    02:00 +17°C° 0 mm 3 mps 625 mmHg 33%
    03:00 +17°C° 0 mm 2 mps 625 mmHg 34%
    04:00 +17°C° 0 mm 2 mps 625 mmHg 33%
    05:00 +17°C° 0 mm 2 mps 625 mmHg 32%
    06:00 +17°C° 0 mm 2 mps 626 mmHg 31%
    07:00 +20°C° 0 mm 2 mps 626 mmHg 26%
    08:00 +23°C° 0 mm 2 mps 627 mmHg 21%
    09:00 +26°C° 0 mm 2 mps 628 mmHg 16%
    10:00 +27°C° 0 mm 3 mps 628 mmHg 14%
    11:00 +29°C° 0 mm 3 mps 628 mmHg 13%
    12:00 +30°C° 0 mm 3 mps 628 mmHg 11%
    13:00 +31°C° 0 mm 3 mps 628 mmHg 11%
    14:00 +31°C° 0 mm 3 mps 628 mmHg 11%
    15:00 +33°C° 0 mm 4 mps 627 mmHg 10%
    16:00 +30°C° 0 mm 4 mps 627 mmHg 12%
    17:00 +29°C° 0 mm 4 mps 626 mmHg 13%
    18:00 +28°C° 0 mm 4 mps 625 mmHg 14%
    19:00 +25°C° 0 mm 4 mps 625 mmHg 17%
    20:00 +22°C° 0 mm 4 mps 624 mmHg 19%
    21:00 +20°C° 0 mm 3 mps 624 mmHg 21%
    22:00 +20°C° 0 mm 3 mps 624 mmHg 22%
    23:00 +19°C° 0 mm 3 mps 624 mmHg 24%

    Day after tomorrow, 22 August, Thursday

    Time Temperature Precipitation Wind Pressure Humidity
    00:00 +19°C° 0 mm 3 mps 624 mmHg 25%
    01:00 +18°C° 0 mm 3 mps 623 mmHg 25%
    02:00 +18°C° 0 mm 3 mps 623 mmHg 25%
    03:00 +18°C° 0 mm 3 mps 623 mmHg 26%
    04:00 +18°C° 0 mm 3 mps 623 mmHg 25%
    05:00 +18°C° 0 mm 2 mps 623 mmHg 25%
    06:00 +18°C° 0 mm 2 mps 623 mmHg 24%
    07:00 +21°C° 0 mm 3 mps 624 mmHg 21%
    08:00 +25°C° 0 mm 3 mps 625 mmHg 17%
    09:00 +27°C° 0 mm 3 mps 626 mmHg 14%
    10:00 +29°C° 0 mm 3 mps 626 mmHg 13%
    11:00 +30°C° 0 mm 3 mps 626 mmHg 12%
    12:00 +33°C° 0 mm 3 mps 626 mmHg 11%
    13:00 +33°C° 0 mm 4 mps 626 mmHg 11%
    14:00 +34°C° 0 mm 4 mps 625 mmHg 11%
    15:00 +34°C° 0 mm 4 mps 625 mmHg 11%
    16:00 +32°C° 0 mm 4 mps 624 mmHg 13%
    17:00 +29°C° 0 mm 4 mps 623 mmHg 16%
    18:00 +27°C° 0 mm 5 mps 623 mmHg 18%
    19:00 +25°C° 0 mm 4 mps 623 mmHg 20%
    20:00 +22°C° 0 mm 4 mps 622 mmHg 22%
    21:00 +20°C° 0 mm 4 mps 622 mmHg 24%
    22:00 +20°C° 0 mm 4 mps 622 mmHg 24%
    23:00 +19°C° 0 mm 4 mps 622 mmHg 25%

    23 August, Friday

    Time Temperature Precipitation Wind Pressure Humidity
    00:00 +19°C° 0 mm 4 mps 622 mmHg 25%
    01:00 +18°C° 0 mm 3 mps 622 mmHg 25%
    02:00 +18°C° 0 mm 3 mps 622 mmHg 26%
    03:00 +18°C° 0 mm 3 mps 622 mmHg 26%
    04:00 +18°C° 0 mm 2 mps 622 mmHg 25%
    05:00 +18°C° 0 mm 2 mps 622 mmHg 25%
    06:00 +18°C° 0 mm 2 mps 623 mmHg 25%
    07:00 +21°C° 0 mm 2 mps 623 mmHg 22%
    08:00 +24°C° 0 mm 3 mps 624 mmHg 19%
    09:00 +27°C° 0 mm 3 mps 625 mmHg 17%
    10:00 +28°C° 0 mm 3 mps 625 mmHg 15%
    11:00 +30°C° 0 mm 3 mps 626 mmHg 14%
    12:00 +31°C° 0 mm 3 mps 626 mmHg 13%
    13:00 +33°C° 0 mm 3 mps 625 mmHg 13%
    14:00 +33°C° 0 mm 4 mps 625 mmHg 12%
    15:00 +33°C° 0 mm 4 mps 625 mmHg 12%
    16:00 +30°C° 0 mm 4 mps 624 mmHg 15%
    17:00 +29°C° 0 mm 5 mps 624 mmHg 18%
    18:00 +27°C° 0 mm 5 mps 623 mmHg 22%
    19:00 +25°C° 0 mm 4 mps 623 mmHg 26%
    20:00 +22°C° 0 mm 4 mps 623 mmHg 31%
    21:00 +20°C° 0 mm 4 mps 622 mmHg 36%
    22:00 +19°C° 0 mm 4 mps 622 mmHg 38%
    23:00 +19°C° 0 mm 3 mps 622 mmHg 39%

    24 August, Saturday

    Time Temperature Precipitation Wind Pressure Humidity
    00:00 +18°C° 0 mm 3 mps 622 mmHg 41%
    01:00 +18°C° 0 mm 3 mps 622 mmHg 41%
    02:00 +18°C° 0 mm 3 mps 622 mmHg 42%
    03:00 +17°C° 0 mm 2 mps 622 mmHg 42%
    04:00 +17°C° 0 mm 2 mps 622 mmHg 42%
    05:00 +18°C° 0 mm 2 mps 622 mmHg 41%
    06:00 +18°C° 0 mm 2 mps 623 mmHg 41%
    07:00 +20°C° 0 mm 2 mps 623 mmHg 35%
    08:00 +24°C° 0 mm 2 mps 624 mmHg 30%
    09:00 +26°C° 0 mm 2 mps 625 mmHg 25%
    10:00 +28°C° 0 mm 2 mps 626 mmHg 22%
    11:00 +29°C° 0 mm 2 mps 626 mmHg 19%
    12:00 +31°C° 0 mm 2 mps 626 mmHg 16%
    13:00 +31°C° 0 mm 2 mps 626 mmHg 15%
    14:00 +31°C° 0 mm 3 mps 626 mmHg 15%
    15:00 +33°C° 0 mm 3 mps 625 mmHg 14%
    16:00 +30°C° 0 mm 3 mps 625 mmHg 19%
    17:00 +29°C° 0 mm 3 mps 624 mmHg 24%
    18:00 +27°C° 0 mm 4 mps 624 mmHg 29%
    19:00 +25°C° 0 mm 3 mps 624 mmHg 32%
    20:00 +22°C° 0 mm 3 mps 624 mmHg 36%
    21:00 +20°C° 0 mm 3 mps 624 mmHg 40%
    22:00 +20°C° 0 mm 3 mps 624 mmHg 40%
    23:00 +19°C° 0 mm 3 mps 624 mmHg 41%

    25 August, Sunday

    Time Temperature Precipitation Wind Pressure Humidity
    00:00 +18°C° 0 mm 3 mps 624 mmHg 42%
    01:00 +18°C° 0 mm 3 mps 624 mmHg 41%
    02:00 +17°C° 0 mm 3 mps 624 mmHg 41%
    03:00 +17°C° 0 mm 2 mps 623 mmHg 41%
    04:00 +17°C° 0 mm 2 mps 624 mmHg 39%
    05:00 +17°C° 0 mm 2 mps 624 mmHg 37%
    06:00 +17°C° 0 mm 2 mps 625 mmHg 35%
    07:00 +19°C° 0 mm 2 mps 625 mmHg 31%
    08:00 +23°C° 0 mm 2 mps 626 mmHg 26%
    09:00 +25°C° 0 mm 2 mps 627 mmHg 22%
    10:00 +26°C° 0 mm 3 mps 627 mmHg 21%
    11:00 +27°C° 0 mm 3 mps 627 mmHg 19%
    12:00 +29°C° 0 mm 3 mps 628 mmHg 18%
    13:00 +29°C° 0 mm 3 mps 627 mmHg 17%
    14:00 +30°C° 0 mm 4 mps 627 mmHg 17%
    15:00 +30°C° 0 mm 4 mps 627 mmHg 17%
    16:00 +29°C° 0 mm 4 mps 626 mmHg 18%
    17:00 +27°C° 0 mm 4 mps 626 mmHg 20%
    18:00 +26°C° 0 mm 5 mps 626 mmHg 21%
    19:00 +23°C° 0 mm 4 mps 626 mmHg 25%
    20:00 +21°C° 0 mm 4 mps 626 mmHg 28%
    21:00 +19°C° 0 mm 4 mps 626 mmHg 31%
    22:00 +19°C° 0 mm 3 mps 626 mmHg 34%
    23:00 +18°C° 0 mm 3 mps 625 mmHg 37%
    Show more